Location: *
(40.7765°S, 106.5327°E)
Time: 12:58:19
(UTC+00:00)

Cosmos 1354 Rocket - Visible Passes

Search period start: 26 September 2022 00:00
Search period end: 06 October 2022 00:00
Orbit: 764 x 782 km, 74.0° (Epoch: 25 September)

Date Brightness Start Highest point End Pass type
(mag) Time Alt. Az. Time Alt. Az. Time Alt. Az.
26 Sep 5.0 11:52:25 10° S 11:57:02 28° ESE 11:59:45 19° ENE visible
26 Sep 5.2 13:34:22 10° SW 13:39:16 37° W 13:40:10 34° WNW visible
27 Sep 5.6 11:17:36 10° SSE 11:21:16 18° SE 11:24:54 10° E visible
27 Sep 4.4 12:58:37 10° SSW 13:03:55 62° WNW 13:06:04 34° N visible
28 Sep 3.9 12:23:05 10° SSW 12:28:28 81° ESE 12:32:04 21° NNE visible
28 Sep 6.7 14:08:06 10° WSW 14:09:49 12° W 14:11:32 10° WNW visible
29 Sep 4.3 11:47:44 10° S 11:52:57 49° ESE 11:58:03 10° NE visible
29 Sep 6.3 13:30:53 10° SW 13:34:40 20° W 13:38:26 10° NW visible
30 Sep 5.6 12:54:42 10° SW 12:59:26 33° W 13:04:07 10° NNW visible
01 Oct 4.7 12:18:53 10° SSW 12:24:07 55° WNW 12:29:15 10° N visible
02 Oct 4.1 11:43:18 10° SSW 11:48:42 89° ESE 11:53:59 10° NNE visible
02 Oct 7.1 13:29:35 10° W 13:29:58 10° W 13:30:20 10° W visible
03 Oct 6.7 12:51:20 10° SW 12:54:50 18° W 12:58:18 10° NW visible
04 Oct 6.0 12:15:01 10° SW 12:19:37 30° W 12:24:08 10° NNW visible
05 Oct 5.1 11:39:09 10° SSW 11:44:18 50° WNW 11:49:22 10° N visible
